User: anonymous   Login
Location: North Smoke Tower Site
(30.5430°N, 82.3390°W)
Time: 09:26:56
(UTC-04:00)
Language:

Cosmos 1980 Rocket - Orbit

View from above orbital plane
View from above orbital plane
View from above satellite
View from above satellite

Ground track
Ground track

The orbit data is extracted from the following two-line orbital elements,

1 19650U 88102B   17264.94689772 -.00000224 +00000-0 -89842-4 0  9997
2 19650 070.9988 171.6390 0013087 027.4355 332.7456 14.15760903489418
Epoch (UTC): 21 September 2017 22:43:31
Eccentricity: 0.0013087
inclination: 70.9988°
perigee height: 830 km
apogee height: 849 km
right ascension of ascending node: 171.6390°
argument of perigee: 27.4355°
revolutions per day: 14.15760903
mean anomaly at epoch: 332.7456°
orbit number at epoch: 48941

The dashed part of the orbit path shows where the satellite is in the earth's shadow,  

DLR